Weather Roundup
Issued by NWS Corpus Christi, TX

Home | Current Version | Previous Version | Text Only | Print | Product List | Glossary On
Versions: 1 2 3 4 5 6 7 8 9 10 11 12 13 14 15 16 17 18 19 20 21 22 23 24 25 26 27 28 29 30 31 32 33 34 35 36 37 38 39 40 41 42 43 44 45 46 47 48 49 50
000
ASUS44 KCRP 210110
HRRCRP

SOUTH TEXAS REGIONAL WEATHER ROUNDUP
NATIONAL WEATHER SERVICE CORPUS CHRISTI TX
800 PM CDT FRI OCT 20 2017


TXZ229>244-210200-
...CORPUS CHRISTI AREA OBSERVATIONS...

CITY           SKY/WX    TMP DP  RH WIND       PRES   REMARKS
CORPUS CHRISTI MOCLDY    78  72  81 E9        29.89R
NAS CORPUS CHR CLEAR     80  74  81 E10       29.89R
ROCKPORT       CLEAR     77  73  87 SE9       29.89S
KINGSVILLE ARP FAIR      79  73  83 E8        29.89R
KINGSVILLE NAS PTCLDY    77  73  87 SE7       29.89R
ALICE          CLEAR     78  68  71 SE9       29.89R
$$

...VICTORIA AREA OBSERVATIONS...

CITY           SKY/WX    TMP DP  RH WIND       PRES   REMARKS
PORT LAVACA    PTCLDY    74  69  84 SE5       29.92R
VICTORIA       CLEAR     73  68  84 SE6       29.92R
BEEVILLE       FAIR      74  58  58 E5        29.90R
PLEASANTON     CLOUDY    74  66  74 CALM      29.90S
SAN ANTONIO    MOCLDY    75  66  73 E3        29.93S
$$

...LAREDO AREA OBSERVATIONS...

CITY           SKY/WX    TMP DP  RH WIND       PRES   REMARKS
LAREDO         MOCLDY    80  67  64 CALM      29.87S
COTULLA        MOCLDY    79  65  62 E5        29.87S
DEL RIO        CLEAR     74  66  76 SE7       29.88R
MCALLEN        CLEAR     82  68  62 SE9       29.87S
HEBBRONVILLE   CLOUDY    80  65  61 SE9       29.89R
$$

...OTHER TEXAS OBSERVATIONS...

CITY           SKY/WX    TMP DP  RH WIND       PRES   REMARKS
BROWNSVILLE    CLEAR     79  73  82 E6        29.89R
HOUSTON        MOCLDY    74  72  93 SE16      29.96R
COL. STATION   PTCLDY    76  70  82 SE10      29.95R
AUSTIN         CLOUDY    75  70  84 SW3       29.92R
WACO           PTCLDY    78  67  68 SE9       29.92R
FORT WORTH     CLOUDY    78  65  63 SE18G26   29.90R
WICHITA FALLS  PTCLDY    72  63  73 S16       29.84F
LUBBOCK        PTCLDY    71  57  61 S16G26    29.83R
EL PASO        PTCLDY    81  35  19 W10       29.84S
$$

...MARINE OBSERVATIONS...

STATION/POSITION TIME  SKY/WX   TEMP    WIND        PRES    VSBY  WAVE   SWELL
                                AIR SEA DIR/SP/G                  HT/PER HT/PER
                 (UTC)          (F)     (DEG/KT/KT) (MB)    (MI)  (FT/S) (FT/S)
PORT ARANSAS     NOT AVBL
BUOY 90 E PORT A 0050            80 83   90/ 12/ 14 1012.7F         5/ 8   5/ 8
BUOY 200 E PT IS 0050            81 83  120/ 12/ 16 1013.4R         7/ 8   7/ 8
BUOY 15 E GALVES 2350            77 79   90/ 17/ 19 1013.7          6/ 6   2/12
$$




USA.gov is the U.S. government's official web portal to all federal, state and local government web resources and services.